Weather History for Lima, OH

Change the Weather History Date:

Friday, January 4, 2013

  Actual Average (KFDY) Record (KFDY)
Temperature  
Mean Temperature 22 °F -  
Max Temperature 26 °F 33 °F 62 °F (1997)
Min Temperature 18 °F 18 °F -11 °F (1981)
Degree Days  
Heating Degree Days 43    
Moisture  
Dew Point 15 °F    
Average Humidity 70    
Maximum Humidity 75    
Minimum Humidity 62    
Precipitation  
Precipitation 0.00 in - - ()
Sea Level Pressure  
Sea Level Pressure 30.26 in    
Wind  
Wind Speed 15 mph (WSW)    
Max Wind Speed 22 mph    
Max Gust Speed 31 mph    
Visibility 10 miles    
Events      
Averages and records for this station are not official NWS values.
T = Trace of Precipitation, MM = Missing Value Source: NWS Daily Summary

Daily Weather History Graph

Daily Weather History Graph

Search for Another Location

Airport:

Trip Planner

Search our weather history database for the weather conditions in past years. The results will help you decide how hot, cold, wet, or windy it might be!

Date:

Astronomy

Jan. 04, 2013 Rise Set
Actual Time 8:00 AM EST 5:22 PM EST
Civil Twilight 7:29 AM EST 5:53 PM EST
Nautical Twilight 6:55 AM EST 6:27 PM EST
Astronomical Twilight 6:22 AM EST 7:00 PM EST
Moon No Moon Rise 11:40 AM EST (1/4)
Length of Visible Light 10h 23m
Length of Day
9h 22m
Waning Gibbous, 55% of the Moon is Illuminated
Jan 4
Waning Gibbous
Jan 4
Last Quarter
Jan 11
New
Jan 18
First Quarter
Jan 26
Full

Hourly Weather History & Observations

Time (EST) Temp. Windchill Dew Point Humidity Pressure Visibility Wind Dir Wind Speed Gust Speed Precip Events Conditions
12:39 AM 26.6 °F 15.2 °F 19.4 °F 74% 30.21 in 10.0 mi WSW 13.8 mph - N/A   Overcast
12:53 AM 26.1 °F 12.7 °F 19.0 °F 75% 30.25 in 10.0 mi West 18.4 mph - N/A   Overcast
1:17 AM 24.8 °F 12.4 °F 17.6 °F 74% 30.20 in 10.0 mi WSW 15.0 mph - N/A   Overcast
1:53 AM 21.9 °F 10.4 °F 15.1 °F 75% 30.25 in 10.0 mi WSW 11.5 mph - N/A   Clear
2:53 AM 21.9 °F 9.8 °F 14.0 °F 72% 30.27 in 10.0 mi WSW 12.7 mph - N/A   Partly Cloudy
3:53 AM 21.9 °F 8.7 °F 14.0 °F 72% 30.27 in 10.0 mi WSW 15.0 mph - N/A   Overcast
4:53 AM 21.9 °F 8.2 °F 15.1 °F 75% 30.25 in 10.0 mi WSW 16.1 mph - N/A   Overcast
5:53 AM 21.0 °F 8.1 °F 14.0 °F 74% 30.25 in 10.0 mi SW 13.8 mph - N/A   Overcast
6:53 AM 19.0 °F 5.6 °F 12.0 °F 74% 30.26 in 10.0 mi WSW 13.8 mph - N/A   Partly Cloudy
7:53 AM 18.0 °F 5.4 °F 10.9 °F 74% 30.27 in 10.0 mi WSW 11.5 mph - N/A   Clear
8:53 AM 18.0 °F 4.8 °F 10.9 °F 74% 30.27 in 10.0 mi SW 12.7 mph - N/A   Clear
9:53 AM 19.9 °F 4.8 °F 12.0 °F 71% 30.27 in 10.0 mi WSW 18.4 mph 24.2 mph N/A   Clear
10:53 AM 21.9 °F 8.2 °F 12.0 °F 66% 30.29 in 10.0 mi WSW 16.1 mph - N/A   Clear
11:53 AM 24.1 °F 9.8 °F 12.9 °F 62% 30.27 in 10.0 mi WSW 19.6 mph 25.3 mph N/A   Clear
12:53 PM 24.1 °F 10.1 °F 12.9 °F 62% 30.25 in 10.0 mi WSW 18.4 mph 28.8 mph N/A   Clear
1:53 PM 25.0 °F 10.9 °F 14.0 °F 63% 30.25 in 10.0 mi WSW 19.6 mph 31.1 mph N/A   Clear
2:53 PM 26.1 °F 11.6 °F 15.1 °F 63% 30.24 in 10.0 mi WSW 21.9 mph 28.8 mph N/A   Clear
3:53 PM 26.1 °F 12.7 °F 16.0 °F 66% 30.25 in 10.0 mi SW 18.4 mph 25.3 mph N/A   Clear
4:53 PM 26.1 °F 12.7 °F 16.0 °F 66% 30.24 in 10.0 mi SW 18.4 mph - N/A   Clear
5:53 PM 25.0 °F 12.2 °F 16.0 °F 69% 30.23 in 10.0 mi SW 16.1 mph - N/A   Clear
6:53 PM 25.0 °F 12.2 °F 16.0 °F 69% 30.26 in 10.0 mi SW 16.1 mph - N/A   Clear
8:53 PM 24.1 °F 12.0 °F 15.1 °F 69% 30.28 in 10.0 mi WSW 13.8 mph - N/A   Clear
9:53 PM 24.1 °F 12.5 °F 16.0 °F 71% 30.29 in 10.0 mi SW 12.7 mph - N/A   Clear
10:53 PM 24.1 °F 12.5 °F 16.0 °F 71% 30.29 in 10.0 mi SW 12.7 mph - N/A   Clear
11:53 PM 24.1 °F 13.1 °F 16.0 °F 71% 30.30 in 10.0 mi SW 11.5 mph - N/A   Clear